Watertown, SD

3:50 AM CDT on March 27, 2017 (GMT -0500)
Watertown Municipal

Weather History for KATY - July, 2013

Change the Weather History Date:

Saturday, July 27, 2013

  Actual Average Record
Temperature  
Mean Temperature 55 °F 71 °F  
Max Temperature 68 °F 83 °F 105 °F (1931)
Min Temperature 42 °F 60 °F 42 °F (2013)
Degree Days  
Heating Degree Days 10 1  
Month to date heating degree days 19 14  
Since 1 June heating degree days 107 92  
Since 1 July heating degree days 19 14  
Cooling Degree Days 0 7  
Month to date cooling degree days 192 182  
Year to date cooling degree days 303 300  
Since 1 June cooling degree days 281 278  
Growing Degree Days 4 (Base 50)    
Moisture  
Dew Point 43 °F    
Average Humidity 71    
Maximum Humidity 100    
Minimum Humidity 42    
Precipitation  
Precipitation 0.00 in 0.10 in 0.97 in (1910)
Month to date precipitation 2.61 2.63  
Year to date precipitation 16.11 13.06  
Sea Level Pressure  
Sea Level Pressure 30.13 in    
Wind  
Wind Speed 9 mph (North)    
Max Wind Speed 20 mph    
Max Gust Speed 25 mph    
Visibility 10 miles    
Events      
T = Trace of Precipitation, MM = Missing Value Source: NWS Daily Summary

Daily Weather History Graph

Daily Weather History Graph

Search for Another Location

Airport or City:

Trip Planner

Search our weather history database for the weather conditions in past years. The results will help you decide how hot, cold, wet, or windy it might be!

Date:

Astronomy

Jul. 27, 2013 Rise Set
Actual Time 6:08 AM CDT 9:00 PM CDT
Civil Twilight 5:34 AM CDT 9:34 PM CDT
Nautical Twilight 4:51 AM CDT 10:18 PM CDT
Astronomical Twilight 3:59 AM CDT 11:09 PM CDT
Moon 11:29 PM CDT 12:08 PM CDT
Length of Visible Light 16h 00m
Length of Day
14h 51m
Waning Gibbous, 70% of the Moon is Illuminated
Jul 27
Waning Gibbous
Jul 29
Last Quarter
Aug 6
New
Aug 14
First Quarter
Aug 20
Full

Hourly Weather History & Observations

Time (CDT) Temp. Windchill Dew Point Humidity Pressure Visibility Wind Dir Wind Speed Gust Speed Precip Events Conditions
12:53 AM 46.9 °F - 43.0 °F 86% 30.18 in 10.0 mi North 3.5 mph - N/A   Scattered Clouds
1:53 AM 46.9 °F - 43.0 °F 86% 30.17 in 10.0 mi North 4.6 mph - N/A   Clear
2:53 AM 46.9 °F - 43.0 °F 86% 30.17 in 10.0 mi North 3.5 mph - N/A   Clear
3:53 AM 45.0 °F 42.6 °F 42.1 °F 90% 30.16 in 10.0 mi NNE 4.6 mph - N/A   Clear
4:53 AM 43.0 °F 41.3 °F 42.1 °F 97% 30.18 in 10.0 mi North 3.5 mph - N/A   Clear
5:53 AM 44.1 °F 39.0 °F 42.1 °F 93% 30.18 in 10.0 mi North 9.2 mph - N/A   Clear
6:53 AM 44.1 °F 40.1 °F 43.0 °F 96% 30.19 in 10.0 mi North 6.9 mph - N/A   Clear
7:53 AM 48.9 °F - 44.1 °F 83% 30.19 in 10.0 mi NNE 10.4 mph - N/A   Clear
8:53 AM 54.0 °F - 43.0 °F 66% 30.19 in 10.0 mi NNE 10.4 mph - N/A   Clear
9:53 AM 57.9 °F - 42.1 °F 56% 30.18 in 10.0 mi North 16.1 mph - N/A   Clear
10:53 AM 61.0 °F - 41.0 °F 48% 30.16 in 10.0 mi NNE 16.1 mph - N/A   Clear
11:53 AM 62.1 °F - 41.0 °F 46% 30.15 in 10.0 mi North 15.0 mph 23.0 mph N/A   Scattered Clouds
12:53 PM 64.0 °F - 41.0 °F 43% 30.13 in 10.0 mi North 13.8 mph 19.6 mph N/A   Scattered Clouds
1:53 PM 64.0 °F - 42.1 °F 45% 30.12 in 10.0 mi North 10.4 mph - N/A   Mostly Cloudy
2:53 PM 64.0 °F - 43.0 °F 46% 30.11 in 10.0 mi NNW 11.5 mph - N/A   Mostly Cloudy
3:53 PM 64.9 °F - 43.0 °F 45% 30.09 in 10.0 mi North 11.5 mph - N/A   Mostly Cloudy
4:53 PM 66.9 °F - 42.1 °F 40% 30.08 in 10.0 mi NNW 13.8 mph 21.9 mph N/A   Scattered Clouds
5:53 PM 66.9 °F - 42.1 °F 40% 30.06 in 10.0 mi North 13.8 mph - N/A   Partly Cloudy
6:53 PM 64.9 °F - 43.0 °F 45% 30.05 in 10.0 mi North 13.8 mph - N/A   Clear
7:53 PM 63.0 °F - 44.1 °F 50% 30.06 in 10.0 mi North 8.1 mph - N/A   Clear
8:53 PM 57.0 °F - 46.0 °F 67% 30.06 in 10.0 mi North 4.6 mph - N/A   Clear
9:53 PM 54.0 °F - 44.1 °F 69% 30.07 in 10.0 mi North 3.5 mph - N/A   Clear
10:53 PM 53.1 °F - 45.0 °F 74% 30.07 in 10.0 mi Calm Calm - N/A   Clear
11:53 PM 51.1 °F - 45.0 °F 80% 30.07 in 10.0 mi Calm Calm - N/A   Clear